User: anonymous   Login
Location: El Carrer d�Abaix
(41.5797°N, 2.1791°E)
Time: 11:31:58
(UTC+00:00)
Language:

S3M - Orbit

View from above orbital plane
View from above orbital plane
View from above satellite
View from above satellite

Ground track
Ground track

The orbit data is extracted from the following two-line orbital elements,

1 12508U 81053B   20226.87387560 +.00000035 +00000-0 +19831-4 0  9993
2 12508 082.9602 008.5339 0036631 218.5516 141.3025 13.76360784973943
Epoch (UTC): 13 August 2020 20:58:22
Eccentricity: 0.0036631
inclination: 82.9602°
perigee height: 950 km
apogee height: 1004 km
right ascension of ascending node: 8.5339°
argument of perigee: 218.5516°
revolutions per day: 13.76360784
mean anomaly at epoch: 141.3025°
orbit number at epoch: 97394

The dashed part of the orbit path shows where the satellite is in the earth's shadow,  

DLR